Location: Hac?musa Deresi
(39.1694°N, 32.2508°E)
Time: 10:30:40
(UTC+00:00)

Cosmos 1125 Rocket - Pass Details

Date: 22 April 2026
Orbit: 752 x 776 km, 74.0° (Epoch: 12 May)

Event Time Altitude Azimuth Distance (km) Brightness Sun altitude
Rises 17:05:19 0° 189° (S) 3,202 6.6 -6.4°
Reaches altitude 10° 17:07:40 10° 187° (S) 2,285 5.8 -6.8°
Maximum altitude 17:12:48 67° 106° (ESE) 831 3.5 -7.7°
Drops below altitude 10° 17:18:01 10° 24° (NNE) 2,316 6.0 -8.6°
Sets 17:20:25 0° 22° (NNE) 3,250 6.8 -9.0°
